Location: Unnamed
(51.5169°N, 0.1311°W)
Time: 19:27:02
(UTC+01:00)

Tiros 1 - Pass Details

Date: 15 August 2024
Orbit: 623 x 655 km, 48.4° (Epoch: 16 September)

Event Time Altitude Azimuth Distance (km) Brightness Sun altitude
Rises 04:42:21 0° 220° (SW) 2,961 - -9.4°
Exits shadow 04:44:47 - 210° (SSW) 2,103 9.2 -9.1°
Reaches altitude 10° 04:44:56 10° 209° (SSW) 2,057 9.2 -9.1°
Maximum altitude 04:48:58 28° 151° (SSE) 1,225 8.5 -8.6°
Drops below altitude 10° 04:53:01 10° 92° (E) 2,068 10.6 -8.1°
Sets 04:55:37 0° 81° (E) 2,982 11.9 -7.8°
